sat.trackr.live / text

‹ back to catalog

STARLINK-37147

NORAD 68295 · 2026-057B

PAYLOAD ACTIVE UNKNOWN

§ Identity

Operator
Country
US
Launch date
2026-03-20
Launch site
AFWTR
Launch vehicle
Mass (kg)
RCS (m²)

Purposes: comms

External: N2YO · Heavens-Above · Gunter

§ Orbital elements

Epoch: 2026-09-20T02:25:37.733088Z

Period
93.90 min
Inclination
97.2846°
Eccentricity
0.0000791
Mean motion
15.33496764 rev/d
Perigee alt
464.8 km
Apogee alt
465.9 km
Semi-major
6,843.5 km
B*
9.5101e-4
RAAN
28.5218°
Arg perigee
82.3797°
Mean anomaly
277.7536°
Rev number
2,845

§ Raw data

STARLINK-371471 68295U 26057B   26263.10113117  .00030803  00000+0  95101-3 0  99962 68295  97.2846  28.5218 0000791  82.3797 277.7536 15.33496764 28451

JSON: /api/v1/satellites/68295 · /tle

For live sub-satellite position, see the globe view (requires WebGL).

§ Visibility from observer

Set your observer location to see the next 7 days of passes ≥ 10°. The values pass through the URL so the page stays shareable.

No JS? Fill the form by hand. The geolocation button needs JavaScript.